Weather History for Anchialos, Greece

Change the Weather History Date:

Saturday, December 8, 2012

  Actual Average Record
Temperature  
Mean Temperature 45 °F -  
Max Temperature 57 °F - - ()
Min Temperature 33 °F - - ()
Degree Days  
Heating Degree Days 20    
Moisture  
Dew Point 38 °F    
Average Humidity 67    
Maximum Humidity 93    
Minimum Humidity 51    
Precipitation  
Precipitation 0.00 in - - ()
Sea Level Pressure  
Sea Level Pressure 29.85 in    
Wind  
Wind Speed 7 mph ()    
Max Wind Speed 17 mph    
Max Gust Speed -    
Visibility 6.2 miles    
Events      
T = Trace of Precipitation, MM = Missing Value Source: Averaged Metar Reports

Daily Weather History Graph

Daily Weather History Graph

Search for Another Location

Airport:

Trip Planner

Search our weather history database for the weather conditions in past years. The results will help you decide how hot, cold, wet, or windy it might be!

Date:

Astronomy

Dec. 08, 2012 Rise Set
Actual Time 7:35 AM EET 5:05 PM EET
Civil Twilight 7:06 AM EET 5:35 PM EET
Nautical Twilight 6:32 AM EET 6:09 PM EET
Astronomical Twilight 6:00 AM EET 6:41 PM EET
Moon 1:41 AM EET (12/8) 1:23 PM EET (12/8)
Length of Visible Light 10h 29m
Length of Day
9h 29m
Waning Crescent, 31% of the Moon is Illuminated
Dec 8
Waning Crescent
Dec 13
New
Dec 20
First Quarter
Dec 28
Full
Jan 5
Last Quarter

Hourly Weather History & Observations

Time (EET) Temp. Windchill Dew Point Humidity Pressure Visibility Wind Dir Wind Speed Gust Speed Precip Events Conditions
12:50 AM 37.4 °F 32.8 °F 32.0 °F 81% 30.01 in 6.2 mi West 5.8 mph - N/A   Partly Cloudy
1:50 AM 35.6 °F - 30.2 °F 81% 30.01 in 6.2 mi Calm Calm - N/A   Partly Cloudy
3:50 AM 33.8 °F 27.7 °F 30.2 °F 87% 30.01 in 6.2 mi WSW 6.9 mph - N/A   Partly Cloudy
4:50 AM 35.6 °F 31.7 °F 30.2 °F 81% 29.98 in 6.2 mi West 4.6 mph - N/A   Partly Cloudy
5:50 AM 35.6 °F - 30.2 °F 81% 29.95 in 6.2 mi Calm Calm - N/A   Scattered Clouds
6:20 AM 35.6 °F - 30.2 °F 81% 29.95 in 6.2 mi Calm Calm - N/A   Scattered Clouds
6:50 AM 35.6 °F - 30.2 °F 81% 29.95 in 6.2 mi Calm Calm - N/A   Scattered Clouds
7:20 AM 37.4 °F - 32.0 °F 81% 29.95 in 6.2 mi Calm Calm - N/A   Scattered Clouds
7:50 AM 35.6 °F 31.7 °F 33.8 °F 93% 29.95 in 6.2 mi West 4.6 mph - N/A   Scattered Clouds
8:20 AM 39.2 °F 35.9 °F 33.8 °F 81% 29.95 in 6.2 mi West 4.6 mph - N/A   Scattered Clouds
8:50 AM 39.2 °F - 35.6 °F 87% 29.95 in 6.2 mi Calm Calm - N/A   Mostly Cloudy
9:20 AM 41.0 °F - 37.4 °F 87% 29.95 in 6.2 mi Calm Calm - N/A   Mostly Cloudy
9:50 AM 42.8 °F - 37.4 °F 81% 29.95 in 6.2 mi Calm Calm - N/A   Mostly Cloudy
10:20 AM 50.0 °F - 39.2 °F 66% 29.92 in 6.2 mi SE 11.5 mph - N/A   Mostly Cloudy
10:50 AM 51.8 °F - 39.2 °F 62% 29.92 in 6.2 mi SE 11.5 mph - N/A   Mostly Cloudy
11:20 AM 51.8 °F - 37.4 °F 58% 29.92 in 6.2 mi ESE 11.5 mph - N/A   Mostly Cloudy
11:50 AM 51.8 °F - 37.4 °F 58% 29.89 in 6.2 mi ESE 12.7 mph - N/A   Mostly Cloudy
12:20 PM 53.6 °F - 35.6 °F 51% 29.89 in 6.2 mi SE 15.0 mph - N/A   Mostly Cloudy
12:50 PM 53.6 °F - 39.2 °F 58% 29.86 in 6.2 mi SE 13.8 mph - N/A   Mostly Cloudy
1:20 PM 55.4 °F - 37.4 °F 51% 29.86 in 6.2 mi ESE 16.1 mph - N/A   Mostly Cloudy
1:50 PM 55.4 °F - 39.2 °F 54% 29.83 in 6.2 mi SE 16.1 mph - N/A   Scattered Clouds
2:20 PM 57.2 °F - 39.2 °F 51% 29.80 in 6.2 mi SE 17.3 mph - N/A   Scattered Clouds
2:50 PM 55.4 °F - 39.2 °F 54% 29.80 in 6.2 mi SE 17.3 mph - N/A   Scattered Clouds
3:20 PM 57.2 °F - 41.0 °F 55% 29.80 in 6.2 mi SE 17.3 mph - N/A   Scattered Clouds
3:50 PM 57.2 °F - 39.2 °F 51% 29.80 in 6.2 mi SE 12.7 mph - N/A   Scattered Clouds
4:20 PM 55.4 °F - 39.2 °F 54% 29.77 in 6.2 mi SE 10.4 mph - N/A   Scattered Clouds
4:50 PM 57.2 °F - 39.2 °F 51% 29.77 in 6.2 mi SE 13.8 mph - N/A   Mostly Cloudy
5:20 PM 57.2 °F - 39.2 °F 51% 29.77 in 6.2 mi SE 17.3 mph - N/A   Mostly Cloudy
5:50 PM 57.2 °F - 41.0 °F 55% 29.74 in 6.2 mi SE 13.8 mph - N/A   Mostly Cloudy
6:20 PM 57.2 °F - 42.8 °F 59% 29.71 in 6.2 mi ESE 16.1 mph - N/A   Mostly Cloudy
6:50 PM 57.2 °F - 42.8 °F 59% 29.71 in 6.2 mi SE 17.3 mph - N/A   Mostly Cloudy
7:20 PM 57.2 °F - 44.6 °F 63% 29.71 in 6.2 mi SE 16.1 mph - N/A   Mostly Cloudy
7:50 PM 57.2 °F - 44.6 °F 63% 29.71 in 6.2 mi SE 12.7 mph - N/A   Mostly Cloudy
8:50 PM 57.2 °F - 46.4 °F 67% 29.68 in 6.2 mi SE 13.8 mph - N/A   Mostly Cloudy
9:50 PM 55.4 °F - 48.2 °F 77% 29.65 in 6.2 mi SE 11.5 mph - N/A   Mostly Cloudy
10:50 PM 55.4 °F - 48.2 °F 77% 29.62 in 6.2 mi SE 15.0 mph - N/A   Mostly Cloudy
11:50 PM 57.2 °F - 46.4 °F 67% 29.59 in 6.2 mi SE 15.0 mph - N/A   Scattered Clouds